Location: Shaver Recreation Center
(34.6784°N, 82.9656°W)
Time: 16:54:50
(UTC-04:00)

Envisat - Visible Passes

Search period start: 24 May 2019 00:00
Search period end: 03 June 2019 00:00
Orbit: 764 x 766 km, 98.2° (Epoch: 24 May)

Date Brightness Start Highest point End Pass type
(mag) Time Alt. Az. Time Alt. Az. Time Alt. Az.
26 May 5.5 21:06:04 10° SW 21:09:53 21° W 21:13:42 10° NW visible
28 May 6.0 21:34:17 10° WSW 21:35:38 11° W 21:36:59 10° WNW visible
31 May 5.7 21:21:31 10° SW 21:24:17 15° W 21:27:05 10° WNW visible
